• In Hungary
  • List of Countries
  • For 7 days
  • Water Temperature
  • Satellite Maps
  • Weather Map
  • News
  • Weather Widgets
  • user-avatar
    Login

    Hourly Weather Oostkamp

    Today, 19 September, Wednesday

    Time Temperature Precipitation Wind Pressure Humidity
    00:00 +15°C° 0 mm 4 mps 760 mmHg 87%
    01:00 +15°C° 0 mm 4 mps 760 mmHg 88%
    02:00 +15°C° 0 mm 4 mps 760 mmHg 89%
    03:00 +15°C° 0 mm 4 mps 760 mmHg 90%
    04:00 +15°C° 0 mm 4 mps 760 mmHg 91%
    05:00 +15°C° 0 mm 4 mps 760 mmHg 92%
    06:00 +15°C° 0 mm 4 mps 760 mmHg 93%
    07:00 +17°C° 0 mm 5 mps 761 mmHg 87%
    08:00 +19°C° 0 mm 6 mps 761 mmHg 80%
    09:00 +21°C° 0 mm 7 mps 761 mmHg 74%
    10:00 +22°C° 0 mm 7 mps 761 mmHg 69%
    11:00 +23°C° 0 mm 7 mps 761 mmHg 63%
    12:00 +24°C° 0 mm 7 mps 761 mmHg 58%
    13:00 +24°C° 0 mm 7 mps 761 mmHg 58%
    14:00 +24°C° 0 mm 7 mps 761 mmHg 58%
    15:00 +24°C° 0 mm 7 mps 760 mmHg 57%
    16:00 +23°C° 0 mm 7 mps 761 mmHg 61%
    17:00 +22°C° 0 mm 6 mps 761 mmHg 64%
    18:00 +21°C° 0 mm 6 mps 761 mmHg 67%
    19:00 +20°C° 0 mm 6 mps 761 mmHg 70%
    20:00 +20°C° 0 mm 6 mps 761 mmHg 73%
    21:00 +19°C° 0 mm 6 mps 762 mmHg 76%
    22:00 +17°C° 0 mm 6 mps 762 mmHg 79%
    23:00 +17°C° 0 mm 6 mps 762 mmHg 82%

    Tomorrow, 20 September, Thursday

    Time Temperature Precipitation Wind Pressure Humidity
    00:00 +16°C° 0 mm 5 mps 762 mmHg 85%
    01:00 +16°C° 0 mm 5 mps 762 mmHg 87%
    02:00 +16°C° 0 mm 5 mps 761 mmHg 89%
    03:00 +15°C° 0 mm 5 mps 761 mmHg 91%
    04:00 +15°C° 0 mm 5 mps 761 mmHg 92%
    05:00 +15°C° 0 mm 5 mps 761 mmHg 92%
    06:00 +15°C° 0 mm 6 mps 761 mmHg 93%
    07:00 +16°C° 0 mm 6 mps 761 mmHg 86%
    08:00 +18°C° 0 mm 7 mps 761 mmHg 80%
    09:00 +20°C° 0 mm 7 mps 761 mmHg 74%
    10:00 +21°C° 0 mm 8 mps 761 mmHg 71%
    11:00 +22°C° 0 mm 8 mps 760 mmHg 69%
    12:00 +22°C° 0 mm 8 mps 760 mmHg 66%
    13:00 +22°C° 0 mm 7 mps 760 mmHg 65%
    14:00 +23°C° 0 mm 7 mps 759 mmHg 65%
    15:00 +23°C° 0 mm 7 mps 758 mmHg 64%
    16:00 +22°C° 0 mm 6 mps 758 mmHg 67%
    17:00 +21°C° 0 mm 5 mps 758 mmHg 70%
    18:00 +20°C° 0 mm 4 mps 757 mmHg 73%
    19:00 +20°C° 0 mm 4 mps 757 mmHg 71%
    20:00 +20°C° 0 mm 5 mps 756 mmHg 70%
    21:00 +20°C° 0 mm 5 mps 756 mmHg 68%
    22:00 +20°C° 0 mm 6 mps 755 mmHg 66%
    23:00 +21°C° 0 mm 7 mps 754 mmHg 63%

    Day after tomorrow, 21 September, Friday

    Time Temperature Precipitation Wind Pressure Humidity
    00:00 +21°C° 0 mm 8 mps 754 mmHg 61%
    01:00 +20°C° 0 mm 8 mps 753 mmHg 62%
    02:00 +19°C° 0 mm 9 mps 752 mmHg 64%
    03:00 +19°C° 0 mm 9 mps 751 mmHg 66%
    04:00 +19°C° 1.7 mm 10 mps 751 mmHg 71%
    05:00 +18°C° 1.7 mm 10 mps 751 mmHg 76%
    06:00 +18°C° 1.7 mm 11 mps 750 mmHg 81%
    07:00 +17°C° 2.6 mm 10 mps 751 mmHg 79%
    08:00 +15°C° 2.6 mm 9 mps 752 mmHg 77%
    09:00 +13°C° 2.6 mm 8 mps 753 mmHg 76%
    10:00 +13°C° 0.1 mm 8 mps 753 mmHg 70%
    11:00 +15°C° 0.1 mm 8 mps 754 mmHg 65%
    12:00 +15°C° 0.1 mm 9 mps 755 mmHg 59%
    13:00 +15°C° 0 mm 9 mps 755 mmHg 54%
    14:00 +16°C° 0 mm 10 mps 756 mmHg 50%
    15:00 +16°C° 0 mm 10 mps 756 mmHg 45%
    16:00 +14°C° 0 mm 10 mps 757 mmHg 47%
    17:00 +13°C° 0 mm 9 mps 757 mmHg 49%
    18:00 +12°C° 0 mm 9 mps 758 mmHg 52%
    19:00 +12°C° 0.1 mm 9 mps 759 mmHg 52%
    20:00 +12°C° 0.1 mm 9 mps 760 mmHg 53%
    21:00 +12°C° 0.1 mm 9 mps 761 mmHg 54%
    22:00 +11°C° 0 mm 8 mps 762 mmHg 57%
    23:00 +11°C° 0 mm 8 mps 762 mmHg 60%

    22 September, Saturday

    Time Temperature Precipitation Wind Pressure Humidity
    00:00 +11°C° 0 mm 8 mps 763 mmHg 63%
    01:00 +10°C° 0 mm 7 mps 763 mmHg 65%
    02:00 +10°C° 0 mm 7 mps 764 mmHg 66%
    03:00 +10°C° 0 mm 7 mps 764 mmHg 68%
    04:00 +10°C° 0.1 mm 7 mps 764 mmHg 70%
    05:00 +10°C° 0.1 mm 7 mps 765 mmHg 71%
    06:00 +9°C° 0.1 mm 7 mps 765 mmHg 72%
    07:00 +11°C° 0 mm 7 mps 765 mmHg 68%
    08:00 +12°C° 0 mm 7 mps 765 mmHg 63%
    09:00 +15°C° 0 mm 7 mps 765 mmHg 59%
    10:00 +15°C° 0.1 mm 7 mps 765 mmHg 57%
    11:00 +16°C° 0.1 mm 7 mps 766 mmHg 55%
    12:00 +16°C° 0.1 mm 6 mps 766 mmHg 53%
    13:00 +16°C° 0 mm 6 mps 765 mmHg 52%
    14:00 +16°C° 0 mm 6 mps 765 mmHg 51%
    15:00 +16°C° 0 mm 5 mps 765 mmHg 50%
    16:00 +15°C° 0 mm 4 mps 765 mmHg 54%
    17:00 +14°C° 0 mm 4 mps 765 mmHg 59%
    18:00 +13°C° 0 mm 3 mps 765 mmHg 64%
    19:00 +13°C° 0.5 mm 3 mps 765 mmHg 68%
    20:00 +13°C° 0.5 mm 4 mps 764 mmHg 72%
    21:00 +12°C° 0.5 mm 4 mps 764 mmHg 76%
    22:00 +12°C° 0.7 mm 5 mps 763 mmHg 79%
    23:00 +11°C° 0.7 mm 6 mps 762 mmHg 82%

    23 September, Sunday

    Time Temperature Precipitation Wind Pressure Humidity
    00:00 +11°C° 0.7 mm 7 mps 761 mmHg 85%
    01:00 +11°C° 0.7 mm 8 mps 759 mmHg 81%
    02:00 +11°C° 0.7 mm 10 mps 757 mmHg 78%
    03:00 +11°C° 0.7 mm 11 mps 755 mmHg 74%
    04:00 +12°C° 0.4 mm 11 mps 753 mmHg 71%
    05:00 +12°C° 0.4 mm 12 mps 751 mmHg 69%
    06:00 +13°C° 0.4 mm 12 mps 750 mmHg 67%
    07:00 +14°C° 0.2 mm 13 mps 748 mmHg 69%
    08:00 +17°C° 0.2 mm 14 mps 747 mmHg 71%
    09:00 +18°C° 0.2 mm 15 mps 746 mmHg 72%
    10:00 +18°C° 0.4 mm 16 mps 744 mmHg 70%
    11:00 +18°C° 0.4 mm 17 mps 743 mmHg 67%
    12:00 +16°C° 0.4 mm 18 mps 742 mmHg 64%
    13:00 +15°C° 0.2 mm 18 mps 741 mmHg 63%
    14:00 +14°C° 0.2 mm 18 mps 739 mmHg 62%
    15:00 +12°C° 0.2 mm 18 mps 738 mmHg 62%
    16:00 +13°C° 0.7 mm 17 mps 738 mmHg 68%
    17:00 +11°C° 0.7 mm 16 mps 738 mmHg 73%
    18:00 +11°C° 0.7 mm 16 mps 737 mmHg 79%
    19:00 +11°C° 1 mm 18 mps 740 mmHg 78%
    20:00 +11°C° 1 mm 20 mps 742 mmHg 77%
    21:00 +11°C° 1 mm 22 mps 745 mmHg 76%
    22:00 +11°C° 0.8 mm 20 mps 748 mmHg 75%
    23:00 +11°C° 0.8 mm 19 mps 751 mmHg 74%

    24 September, Monday

    Time Temperature Precipitation Wind Pressure Humidity
    00:00 +10°C° 0.8 mm 18 mps 754 mmHg 73%
    01:00 +10°C° 0.6 mm 17 mps 756 mmHg 72%
    02:00 +10°C° 0.6 mm 16 mps 758 mmHg 71%
    03:00 +10°C° 0.6 mm 15 mps 760 mmHg 70%
    04:00 +9°C° 0.2 mm 14 mps 761 mmHg 70%
    05:00 +9°C° 0.2 mm 13 mps 762 mmHg 69%
    06:00 +9°C° 0.2 mm 12 mps 764 mmHg 69%
    07:00 +9°C° 0.4 mm 12 mps 764 mmHg 68%
    08:00 +9°C° 0.4 mm 12 mps 765 mmHg 67%
    09:00 +10°C° 0.4 mm 12 mps 766 mmHg 65%
    10:00 +10°C° 0.3 mm 12 mps 767 mmHg 64%
    11:00 +12°C° 0.3 mm 12 mps 768 mmHg 62%
    12:00 +12°C° 0.3 mm 12 mps 769 mmHg 60%
    13:00 +12°C° 0.2 mm 12 mps 769 mmHg 60%
    14:00 +12°C° 0.2 mm 12 mps 770 mmHg 61%
    15:00 +12°C° 0.2 mm 12 mps 770 mmHg 61%
    16:00 +11°C° 0.1 mm 11 mps 771 mmHg 62%
    17:00 +11°C° 0.1 mm 10 mps 771 mmHg 63%
    18:00 +11°C° 0.1 mm 9 mps 772 mmHg 64%
    19:00 +10°C° 0.1 mm 8 mps 772 mmHg 65%
    20:00 +10°C° 0.1 mm 8 mps 773 mmHg 66%
    21:00 +10°C° 0.1 mm 7 mps 773 mmHg 67%
    22:00 +10°C° 0.1 mm 7 mps 773 mmHg 68%
    23:00 +10°C° 0.1 mm 6 mps 774 mmHg 70%
    Show more